Location: North Bay Shore
(40.7362°N, 73.2626°W)
Time: 09:53:14
(UTC+00:00)

Cosmos 1892 - Pass Details

Date: 29 October 2020
Orbit: 504 x 523 km, 82.5° (Epoch: 23 November)

Event Time Altitude Azimuth Distance (km) Brightness Sun altitude
Rises 23:15:48 0° 350° (N) 2,663 6.4 -16.3°
Reaches altitude 10° 23:17:57 10° 348° (NNW) 1,771 5.5 -16.7°
Maximum altitude 23:21:49 71° 264° (W) 558 2.9 -17.5°
Drops below altitude 10° 23:25:39 10° 181° (S) 1,755 5.4 -18.2°
Sets 23:27:47 0° 179° (S) 2,637 6.3 -18.6°
